Location: Miles
(41.4492°N, 81.6087°W)
Time: 07:08:28
(UTC+00:00)

Vanguard 1 Rocket - Pass Details

Date: 19 September 2024
Orbit: 650 x 4218 km, 34.3° (Epoch: 05 October)

Event Time Altitude Azimuth Distance (km) Brightness Sun altitude
Rises 10:12:02 0° 260° (W) 5,587 - -11.9°
Reaches altitude 10° 10:15:00 10° 258° (WSW) 4,945 - -11.3°
Exits shadow 10:15:44 13° 257° (WSW) 4,799 10.4 -11.2°
Maximum altitude 10:30:53 70° 179° (S) 3,634 10.4 -8.4°
Drops below altitude 10° 10:56:32 10° 102° (ESE) 7,418 13.6 -3.6°
Sets 11:02:18 0° 101° (E) 8,371 14.3 -2.5°
